星链-30325 (STARLINK-30325 )

导读 | 星芒AI

STARLINK-30325 是SpaceX星链(Starlink)卫星互联网项目中的第30325颗卫星,属于低轨通信卫星群的一部分。该卫星旨在为全球用户提供高速、低延迟的宽带互联网服务,尤其在偏远和网络覆盖不足的地区。它采用先进的推进和通信技术,支持Ka/Ku频段通信,并具备自主变轨和避碰能力。作为星链计划的扩展,STARLINK-30325有助于提升全球互联网接入的普及率和稳定性。

基本信息
目录编号:
57717
目录名称:
STARLINK-30325
国际标识:
2023-129V
轨道中心:
EARTH
卫星名称:
星链-30325
卫星全名:
星链-30325 (STARLINK-30325 )
卫星状态:
在轨 (已飞行795 天)
发射日期:
2023-08-27 UTC
国别 :
美国 (US)
星等 :
--
轨道信息
数据来源 国际轨道数据
星历时间: 2025-10-30T02:53:35+0800
23小时前
查看轨道信息
半长轴: 6937.218km
偏心率: 0.000135
轨道倾角: 43.003°
近地点辐角 264.424°
升交点赤经 111.545°
平近点角 95.645°
近地点: 558.146km
远地点: 560.02km
周期: 95.838分钟
每日圈数: 15.025358
详细信息
固有亮度:
5
最大亮度:
0.3
卫星平台:
Starlink v2.0 mini
覆盖范围:
全球
运营商:
太空探索技术公司
运营商所在国:
美国
制造商(研发单位):
太空探索技术公司
制造商所在国:
美国
使用方式:
暂无
卫星简介
星链(Starlink)计划是由太空探索技术公司(SpaceX)提出的一个巨型低轨卫星互联网星座项目,计划在2019年至2024年间在太空搭建由约1.2万颗卫星组成的“星链”网络,其中1584颗将部署在地球上空550千米处的近地轨道,并从2020年开始工作。该卫星仍在工作。
2D轨道图
3D轨道图
轨道高度分析图
轨道倾角分析图
轨道综合分析图
查看轨道综合分析图